Theta_e
346 346 345 345 347 347 346 344 343 344 347 349 350 350 351 351 351 353 355 357 357 356 359 358 357 357 356 355 357 358 356 357 357 357 358 359 360 358 358 357 355 355
348 347 347 346 347 348 349 347 344 343 344 348 349 349 351 353 354 353 354 357 356 354 357 358 357 357 357 357 357 358 359 358 358 358 358 359 359 359 358 357 356 356
350 349 348 347 347 348 349 349 347 344 343 346 349 349 349 351 354 354 354 355 356 355 355 357 358 358 358 358 357 357 359 358 357 358 359 358 358 359 359 359 358 356
351 349 348 347 346 345 347 349 350 347 345 347 350 351 349 349 350 353 354 355 355 355 354 356 357 358 357 358 358 356 355 355 354 356 359 359 358 358 358 359 358 357
352 350 348 347 346 345 345 348 351 351 349 349 350 353 352 350 348 349 353 356 355 354 355 357 357 358 357 358 359 359 355 355 354 353 358 360 359 358 357 358 358 358
353 351 349 348 348 347 346 348 351 352 353 351 352 354 355 353 351 349 350 354 355 354 355 357 358 359 359 358 360 360 359 358 358 356 357 358 359 359 357 357 357 358
354 352 351 350 349 349 348 348 350 353 355 354 354 355 356 356 355 351 349 352 355 355 355 357 358 359 360 359 359 360 359 360 361 359 358 357 359 360 358 357 357 357
356 355 353 352 352 352 352 350 351 354 356 357 356 356 356 357 357 355 351 351 354 356 356 357 358 358 360 360 359 359 359 359 360 361 360 358 357 357 356 359 360 358
357 356 356 355 354 354 354 353 353 355 356 358 358 356 355 355 356 355 353 353 353 355 356 358 358 358 358 359 358 358 357 357 357 359 360 359 357 355 354 357 360 360
358 357 356 356 355 354 356 356 355 356 357 358 358 357 355 354 354 356 355 355 355 355 357 358 359 358 357 358 357 357 356 356 356 356 359 360 358 356 355 356 357 358
359 357 357 356 355 356 356 357 357 357 358 359 358 357 356 354 353 356 357 356 356 356 357 358 358 357 356 356 355 356 356 356 356 355 356 357 357 357 357 357 356 356
359 358 357 356 356 356 356 358 358 359 359 360 358 358 357 355 354 355 357 357 357 357 357 358 358 357 356 356 355 355 356 357 357 356 356 356 355 356 357 358 357 356
360 358 357 356 356 356 357 357 359 359 359 360 359 358 357 357 355 354 356 357 357 358 358 358 358 358 357 356 355 355 356 356 357 357 357 357 357 356 356 357 357 358
361 360 358 357 357 356 357 357 358 359 360 360 360 359 358 357 356 355 355 356 357 358 358 358 358 357 357 356 355 355 355 356 357 357 356 357 358 358 357 357 357 358
362 361 359 358 357 356 357 357 358 360 360 360 360 359 357 356 356 356 355 355 356 357 358 359 358 358 357 357 356 356 356 356 357 358 357 357 358 359 358 357 358 358
362 361 359 358 358 357 358 358 358 360 361 361 360 359 358 356 356 356 355 355 356 358 358 359 358 357 356 356 357 356 356 357 357 357 358 358 359 359 359 358 358 359
362 361 360 359 359 358 358 359 359 359 361 361 361 359 358 357 356 356 357 356 356 357 357 358 358 358 357 356 356 355 355 357 358 358 358 357 359 359 359 359 359 359
362 361 361 360 359 360 358 359 359 360 360 361 361 360 358 357 356 356 356 357 357 358 358 357 357 358 357 356 356 356 355 356 357 358 358 358 358 358 359 359 358 358
363 362 361 360 360 360 359 359 360 360 360 360 361 361 359 358 357 357 357 357 358 359 359 358 357 357 357 357 356 356 355 356 356 357 357 357 357 357 357 357 358 358
364 363 361 361 361 360 360 360 360 361 360 361 361 362 361 360 358 357 357 358 358 358 359 360 359 358 358 357 357 357 356 356 357 356 356 357 357 357 357 357 356 357
364 363 362 362 361 361 361 360 360 361 361 360 362 362 362 361 359 357 357 358 359 359 360 361 361 360 359 359 359 358 357 357 358 357 356 356 356 357 357 357 356 356
365 364 363 363 362 362 362 361 361 360 361 361 361 361 362 361 360 358 357 358 359 360 359 361 362 361 360 360 360 360 359 359 359 358 357 356 355 356 357 357 357 356
367 366 364 363 363 363 363 362 361 361 361 361 361 361 362 361 360 360 358 357 358 360 360 361 361 361 362 360 360 361 361 362 360 359 359 357 356 355 356 356 356 356
367 366 365 364 363 363 364 363 362 361 361 362 361 361 362 362 361 359 358 357 356 358 360 361 361 361 361 362 360 361 361 362 362 360 360 359 357 357 357 357 358 358
368 367 367 365 365 364 364 364 364 362 362 362 362 361 360 362 362 361 360 359 357 356 359 360 362 362 361 361 361 361 361 361 361 361 360 359 359 357 356 356 358 359
369 368 368 366 365 364 364 364 364 363 362 362 362 362 360 360 362 362 361 360 360 359 357 358 359 361 361 361 360 360 361 361 361 360 360 360 359 358 357 355 355 354
Wind_Speed
40 38 38 37 35 34 33 33 32 30 28 27 27 26 24 22 22 23 23 22 21 20 18 17 15 15 15 12 11 14 14 11 10 9 9 9 9 9 9 8 8 8
40 39 38 37 36 35 34 34 33 33 32 31 30 28 26 23 23 24 24 23 22 22 20 19 18 18 16 16 15 15 15 13 12 11 10 10 10 9 8 7 8 8
40 39 38 38 37 36 35 33 33 34 33 32 32 31 29 27 25 25 25 26 23 23 23 21 20 20 19 18 17 17 17 16 14 13 11 10 10 11 10 9 8 8
41 40 40 39 39 38 36 34 33 34 33 33 32 32 31 30 28 27 26 27 26 23 23 23 22 21 20 19 18 17 17 17 16 15 13 11 11 12 12 11 9 9
42 41 41 40 39 38 37 35 34 34 34 34 33 32 31 31 30 29 28 28 28 26 24 24 23 22 21 20 19 17 17 17 16 16 15 13 13 13 12 12 11 9
41 41 41 40 39 38 38 37 36 35 35 34 34 33 32 31 31 31 31 30 30 29 27 25 25 24 22 21 21 19 18 17 16 16 17 15 14 14 13 13 13 12
40 41 41 40 39 39 39 39 37 36 35 35 35 34 33 32 32 32 32 32 31 30 29 27 27 26 24 23 23 22 21 19 18 17 17 17 17 16 15 13 13 14
40 40 41 40 39 39 39 39 38 37 36 35 35 36 35 34 34 34 34 34 33 32 31 30 29 28 27 25 25 24 24 22 21 19 19 19 19 18 16 14 14 14
39 40 40 40 39 39 39 39 39 38 37 36 36 36 37 36 35 35 36 36 35 34 32 31 31 30 29 28 27 26 26 25 24 22 21 20 20 19 18 18 17 15
39 40 40 40 40 39 39 39 39 38 37 37 36 36 37 37 36 36 37 37 36 35 34 33 32 31 31 30 29 28 27 27 26 25 23 22 21 20 19 19 19 19
40 40 40 40 40 39 39 38 37 37 37 37 37 36 36 38 36 35 37 38 37 36 35 35 34 33 33 32 31 29 28 27 27 27 26 25 23 22 21 20 20 21
41 41 41 41 41 39 38 38 37 37 37 37 37 36 36 37 37 36 37 38 38 37 36 36 35 35 34 33 32 30 29 28 28 27 27 26 25 24 23 22 21 21
41 42 42 42 42 40 39 38 37 37 37 37 37 37 36 36 38 37 37 38 38 37 37 37 36 36 36 35 33 31 30 29 28 28 27 26 26 26 25 24 23 22
42 42 42 42 42 41 39 38 38 37 37 37 37 38 37 36 37 39 38 37 37 37 37 37 37 36 36 36 35 33 31 30 29 29 28 28 27 27 27 26 25 24
41 41 41 40 41 41 40 39 39 38 37 37 38 38 37 36 36 38 38 37 37 37 37 37 37 37 37 37 36 35 33 32 31 30 29 29 28 28 27 27 26 25
39 40 40 39 40 41 40 40 39 38 37 37 38 39 38 36 36 37 38 38 37 37 37 37 37 38 38 38 37 37 35 33 32 32 31 30 29 29 28 27 27 26
38 39 39 39 40 41 40 39 39 39 38 38 39 39 39 37 35 36 37 37 37 38 37 37 37 38 39 39 38 38 37 35 33 33 33 32 30 29 29 29 28 27
39 39 39 39 39 40 41 40 39 39 38 37 38 40 40 38 36 36 37 37 36 37 38 37 38 38 39 40 40 39 38 37 35 33 33 33 32 31 30 30 29 28
39 40 40 40 39 40 41 40 38 38 38 38 38 39 40 39 37 35 36 37 36 36 37 38 38 38 38 39 40 40 40 38 36 34 32 33 33 33 32 31 30 29
39 40 40 40 40 39 40 40 39 38 38 37 37 38 39 40 38 35 34 37 38 37 37 38 38 38 38 38 39 40 40 40 38 35 33 32 32 33 33 32 31 30
39 40 40 39 39 39 39 40 40 39 38 36 35 36 38 40 40 38 35 36 38 38 37 37 37 38 38 38 38 39 39 40 39 36 33 31 31 31 32 32 32 31
40 39 39 39 39 38 38 40 40 39 38 37 35 35 37 38 39 39 37 35 36 37 37 36 36 37 38 38 37 37 38 39 39 37 34 32 31 31 31 31 32 32
40 40 39 39 39 38 38 39 40 40 39 37 35 33 34 36 38 38 37 36 35 36 37 37 36 36 37 38 37 37 36 37 39 39 36 34 32 31 30 30 31 32
40 40 39 39 39 39 39 38 39 40 39 38 36 34 33 35 37 37 37 37 36 35 35 36 36 36 37 36 36 37 37 37 39 39 38 37 35 33 31 29 28 29
39 40 40 40 40 40 39 38 39 39 39 38 37 35 33 33 35 35 35 36 37 36 34 34 34 36 37 37 36 36 37 39 39 39 37 37 36 36 35 33 31 28
39 40 40 40 40 40 38 37 37 37 38 38 37 36 33 32 33 34 34 34 35 36 35 35 33 33 34 36 36 36 38 39 40 39 38 37 36 36 36 37 37 35
Wind_Direction
196 196 196 196 196 198 199 199 200 200 198 197 197 197 199 200 200 204 207 209 206 199 200 204 201 196 195 198 190 178 184 193 195 199 195 197 206 203 207 218 222 239
197 197 196 196 197 198 200 201 201 202 202 202 203 202 201 202 202 204 206 208 209 204 201 203 203 199 196 200 199 185 181 190 196 201 205 207 207 205 211 222 228 241
199 198 197 198 198 198 200 201 203 204 205 205 207 207 205 203 203 205 207 208 210 208 205 205 206 205 201 201 205 200 192 195 196 196 207 218 213 208 211 218 225 237
201 200 200 200 201 201 201 202 203 205 205 206 207 210 210 207 205 206 209 209 209 209 207 207 208 208 206 204 206 206 203 204 203 196 202 218 222 217 209 208 219 235
202 202 202 202 202 203 202 202 204 204 204 206 207 209 211 210 208 207 209 209 208 209 207 207 208 209 207 203 203 206 206 207 208 202 201 211 223 225 215 207 214 229
203 203 203 203 203 203 203 203 204 204 204 205 206 207 209 209 208 207 207 208 208 207 207 207 207 208 208 204 201 205 206 206 209 207 205 209 218 226 224 213 211 221
204 204 203 204 204 204 204 204 204 204 205 205 205 205 206 207 206 205 205 207 206 206 206 208 208 207 208 206 202 204 206 206 208 210 211 212 216 223 225 218 215 219
205 204 203 203 203 204 205 205 204 205 205 204 204 205 205 205 205 204 204 205 204 205 206 208 209 207 206 207 206 207 208 208 207 210 215 217 219 224 222 216 220 224
205 204 204 203 203 204 205 205 205 205 205 204 205 206 206 205 206 205 204 204 204 205 206 207 209 209 207 208 210 210 211 211 209 209 215 219 221 226 224 217 219 225
206 205 204 203 203 204 205 206 205 205 205 205 205 206 207 207 208 207 204 203 203 204 205 206 209 210 209 210 212 213 214 214 212 210 212 218 221 226 227 223 221 223
205 204 204 204 204 204 205 205 205 204 205 205 205 205 206 207 207 207 204 202 202 203 205 206 209 211 210 210 212 214 216 216 216 214 213 217 222 226 228 228 227 226
203 203 204 204 203 204 205 204 204 204 204 205 205 205 205 206 206 205 204 203 203 204 205 206 209 210 210 210 212 214 216 218 218 217 216 218 222 226 228 229 229 230
203 203 203 204 203 203 204 204 204 204 204 205 205 205 205 205 205 205 204 205 205 205 206 207 208 210 211 211 212 213 215 217 219 219 218 219 223 226 228 229 230 231
203 203 203 203 203 203 203 203 203 204 205 205 205 205 206 205 205 205 205 205 206 206 207 208 209 210 212 212 212 213 215 217 219 221 220 220 222 226 228 229 230 231
202 202 203 203 203 203 203 203 203 203 204 204 205 205 206 206 205 205 205 205 206 206 206 208 209 211 212 212 212 211 213 217 219 220 222 222 222 225 228 230 231 231
201 201 202 203 202 202 203 203 203 202 203 203 204 205 206 206 206 205 205 205 205 206 206 207 209 212 213 214 213 212 212 215 218 220 221 222 223 224 226 229 231 231
200 200 201 202 203 203 203 203 203 202 202 202 203 204 205 206 205 204 204 205 206 206 206 206 209 212 213 214 215 215 213 213 216 219 221 221 223 224 226 228 229 231
198 199 200 202 202 202 203 203 203 203 203 202 202 203 203 204 206 205 204 204 205 206 207 208 210 213 214 214 216 217 216 215 216 218 220 221 222 224 227 229 230 231
197 198 200 201 202 203 203 203 203 203 204 203 203 202 202 203 206 206 204 203 204 206 207 210 212 214 216 216 217 219 219 218 218 219 221 223 224 225 227 229 231 232
197 198 199 201 202 202 202 203 204 204 205 205 204 202 201 203 205 207 205 203 203 205 206 209 213 215 217 219 220 222 222 221 220 220 222 224 226 227 228 229 231 232
197 198 199 200 201 201 201 203 204 205 206 205 204 203 202 203 204 206 207 204 203 204 205 208 212 215 217 219 222 224 224 224 223 222 223 225 228 230 231 232 232 233
196 197 199 199 200 201 201 202 204 205 206 206 205 204 204 204 204 206 208 206 204 204 205 207 211 214 216 218 222 224 225 224 224 223 224 226 228 231 233 235 236 235
196 197 198 199 199 200 202 202 203 204 205 205 205 204 203 204 204 205 207 208 206 205 205 207 210 213 216 218 221 223 223 223 223 222 224 226 228 230 233 236 237 238
196 197 198 199 200 201 202 202 202 203 204 204 205 204 204 204 204 205 207 208 209 208 207 207 209 212 215 217 219 221 221 221 221 220 222 225 227 228 230 232 234 236
196 198 199 199 201 202 203 202 202 202 203 204 205 206 205 204 204 204 206 208 210 212 211 210 210 211 214 216 218 220 219 219 219 218 220 224 227 229 230 231 232 233
197 198 200 200 202 203 203 203 202 202 202 203 205 206 206 205 203 204 206 207 210 213 214 214 213 212 213 216 219 220 220 218 216 215 217 221 224 228 231 233 235 236